Time,TemperatureF,DewpointF,PressureIn,WindDirection,WindDirectionDegrees,WindSpeedMPH,WindSpeedGustMPH,Humidity,HourlyPrecipIn,Conditions,Clouds,dailyrainin,SoftwareType,DateUTC
2013-03-05 00:00:00,44.8,42.6,30.01,West,270,0.0,0.0,92,0.00,,,0.00,LWC V2.11 B50,2013-03-05 08:00:00,
2013-03-05 00:05:00,45.2,42.7,29.99,West,270,0.0,0.0,91,0.00,,,0.00,WeatherCatV1.15B25,2013-03-05 08:05:00,
2013-03-05 00:10:00,45.3,43.1,30.00,West,270,0.0,0.0,92,0.00,,,0.00,LWC V2.11 B50,2013-03-05 08:10:00,
2013-03-05 00:15:00,45.2,42.7,29.99,West,270,0.0,0.0,91,0.00,,,0.00,WeatherCatV1.15B25,2013-03-05 08:15:00,
2013-03-05 00:20:00,45.3,43.1,30.00,West,270,0.0,0.0,92,0.00,,,0.00,LWC V2.11 B50,2013-03-05 08:20:00,
2013-03-05 00:25:00,45.2,42.7,29.99,West,270,0.0,0.0,91,0.00,,,0.00,WeatherCatV1.15B25,2013-03-05 08:25:00,
2013-03-05 00:30:00,45.3,43.1,30.00,West,270,0.0,0.0,92,0.00,,,0.00,LWC V2.11 B50,2013-03-05 08:30:00,
2013-03-05 00:35:00,45.2,42.7,29.99,West,270,0.0,0.0,91,0.00,,,0.00,WeatherCatV1.15B25,2013-03-05 08:35:00,
2013-03-05 00:40:00,45.3,43.1,30.00,West,270,0.0,0.0,92,0.00,,,0.00,LWC V2.11 B50,2013-03-05 08:40:00,
2013-03-05 00:45:00,45.2,42.7,29.99,West,270,0.0,0.0,91,0.00,,,0.00,WeatherCatV1.15B25,2013-03-05 08:45:00,
2013-03-05 00:50:00,45.3,43.1,30.00,West,270,0.0,0.0,92,0.00,,,0.00,LWC V2.11 B50,2013-03-05 08:50:00,
2013-03-05 00:55:00,45.2,42.7,29.99,West,270,0.0,0.0,91,0.00,,,0.00,WeatherCatV1.15B25,2013-03-05 08:55:00,
2013-03-05 01:00:00,45.3,43.1,30.00,West,270,0.0,0.0,92,0.00,,,0.00,LWC V2.11 B50,2013-03-05 09:00:00,
2013-03-05 01:05:00,45.3,42.3,29.98,West,270,0.0,0.0,89,0.00,,,0.00,WeatherCatV1.15B25,2013-03-05 09:05:00,
2013-03-05 01:10:00,45.2,42.7,29.99,West,270,0.0,0.0,91,0.00,,,0.00,LWC V2.11 B50,2013-03-05 09:10:00,
2013-03-05 01:15:00,45.3,42.3,29.98,West,270,0.0,0.0,89,0.00,,,0.00,WeatherCatV1.15B25,2013-03-05 09:15:00,
2013-03-05 01:20:00,45.2,42.7,29.99,West,270,0.0,0.0,91,0.00,,,0.00,LWC V2.11 B50,2013-03-05 09:20:00,
2013-03-05 01:25:00,45.3,42.3,29.98,West,270,0.0,0.0,89,0.00,,,0.00,WeatherCatV1.15B25,2013-03-05 09:25:00,
2013-03-05 01:30:00,45.2,42.7,29.99,West,270,0.0,0.0,91,0.00,,,0.00,LWC V2.11 B50,2013-03-05 09:30:00,
2013-03-05 01:35:00,45.3,42.3,29.98,West,270,0.0,0.0,89,0.00,,,0.00,WeatherCatV1.15B25,2013-03-05 09:35:00,
2013-03-05 01:40:00,45.2,42.7,29.99,West,270,0.0,0.0,91,0.00,,,0.00,LWC V2.11 B50,2013-03-05 09:40:00,
2013-03-05 01:45:00,45.3,42.3,29.98,West,270,0.0,0.0,89,0.00,,,0.00,WeatherCatV1.15B25,2013-03-05 09:45:00,
2013-03-05 01:50:00,45.2,42.7,29.99,West,270,0.0,0.0,91,0.00,,,0.00,LWC V2.11 B50,2013-03-05 09:50:00,
2013-03-05 01:55:00,45.3,42.3,29.98,West,270,0.0,0.0,89,0.00,,,0.00,WeatherCatV1.15B25,2013-03-05 09:55:00,
2013-03-05 02:00:00,45.2,42.7,29.99,West,270,0.0,0.0,91,0.00,,,0.00,LWC V2.11 B50,2013-03-05 10:00:00,
2013-03-05 02:05:00,47.4,43.1,29.97,West,270,0.0,0.0,85,0.00,,,0.00,WeatherCatV1.15B25,2013-03-05 10:05:00,
2013-03-05 02:10:00,45.3,42.3,29.98,West,270,0.0,0.0,89,0.00,,,0.00,LWC V2.11 B50,2013-03-05 10:10:00,
2013-03-05 02:15:00,47.4,43.1,29.97,West,270,0.0,0.0,85,0.00,,,0.00,WeatherCatV1.15B25,2013-03-05 10:15:00,
2013-03-05 02:20:00,45.3,42.3,29.98,West,270,0.0,0.0,89,0.00,,,0.00,LWC V2.11 B50,2013-03-05 10:20:00,
2013-03-05 02:25:00,47.4,43.1,29.97,West,270,0.0,0.0,85,0.00,,,0.00,WeatherCatV1.15B25,2013-03-05 10:25:00,
2013-03-05 02:30:00,45.3,42.3,29.98,West,270,0.0,0.0,89,0.00,,,0.00,LWC V2.11 B50,2013-03-05 10:30:00,
2013-03-05 02:35:00,47.4,43.1,29.97,West,270,0.0,0.0,85,0.00,,,0.00,WeatherCatV1.15B25,2013-03-05 10:35:00,
2013-03-05 02:40:00,45.3,42.3,29.98,West,270,0.0,0.0,89,0.00,,,0.00,LWC V2.11 B50,2013-03-05 10:40:00,
2013-03-05 02:45:00,47.4,43.1,29.97,West,270,0.0,0.0,85,0.00,,,0.00,WeatherCatV1.15B25,2013-03-05 10:45:00,
2013-03-05 02:50:00,45.3,42.3,29.98,West,270,0.0,0.0,89,0.00,,,0.00,LWC V2.11 B50,2013-03-05 10:50:00,
2013-03-05 02:55:00,47.4,43.1,29.97,West,270,0.0,0.0,85,0.00,,,0.00,WeatherCatV1.15B25,2013-03-05 10:55:00,
2013-03-05 03:00:00,45.3,42.3,29.98,West,270,0.0,0.0,89,0.00,,,0.00,LWC V2.11 B50,2013-03-05 11:00:00,
2013-03-05 03:05:00,45.2,42.2,29.97,East,90,0.0,1.0,89,0.00,,,0.00,WeatherCatV1.15B25,2013-03-05 11:05:00,
2013-03-05 03:10:00,47.4,43.1,29.97,West,270,0.0,0.0,85,0.00,,,0.00,LWC V2.11 B50,2013-03-05 11:10:00,
2013-03-05 03:15:00,45.2,42.2,29.97,East,90,0.0,1.0,89,0.00,,,0.00,WeatherCatV1.15B25,2013-03-05 11:15:00,
2013-03-05 03:20:00,47.4,43.1,29.97,West,270,0.0,0.0,85,0.00,,,0.00,LWC V2.11 B50,2013-03-05 11:20:00,
2013-03-05 03:25:00,45.2,42.2,29.97,East,90,0.0,1.0,89,0.00,,,0.00,WeatherCatV1.15B25,2013-03-05 11:25:00,
2013-03-05 03:30:00,47.4,43.1,29.97,West,270,0.0,0.0,85,0.00,,,0.00,LWC V2.11 B50,2013-03-05 11:30:00,
2013-03-05 03:35:00,45.2,42.2,29.97,East,90,0.0,1.0,89,0.00,,,0.00,WeatherCatV1.15B25,2013-03-05 11:35:00,
2013-03-05 03:40:00,47.4,43.1,29.97,West,270,0.0,0.0,85,0.00,,,0.00,LWC V2.11 B50,2013-03-05 11:40:00,
2013-03-05 03:45:00,45.2,42.2,29.97,East,90,0.0,1.0,89,0.00,,,0.00,WeatherCatV1.15B25,2013-03-05 11:45:00,
2013-03-05 03:50:00,47.4,43.1,29.97,West,270,0.0,0.0,85,0.00,,,0.00,LWC V2.11 B50,2013-03-05 11:50:00,
2013-03-05 03:55:00,45.2,42.2,29.97,East,90,0.0,1.0,89,0.00,,,0.00,WeatherCatV1.15B25,2013-03-05 11:55:00,
2013-03-05 04:00:00,47.4,43.1,29.97,West,270,0.0,0.0,85,0.00,,,0.00,LWC V2.11 B50,2013-03-05 12:00:00,
2013-03-05 04:05:00,44.2,39.1,29.97,SE,135,0.0,1.0,82,0.00,,,0.00,WeatherCatV1.15B25,2013-03-05 12:05:00,
2013-03-05 04:10:00,45.2,42.2,29.97,East,90,0.0,1.0,89,0.00,,,0.00,LWC V2.11 B50,2013-03-05 12:10:00,
2013-03-05 04:15:00,44.2,39.1,29.97,SE,135,0.0,1.0,82,0.00,,,0.00,WeatherCatV1.15B25,2013-03-05 12:15:00,
2013-03-05 04:20:00,45.2,42.2,29.97,East,90,0.0,1.0,89,0.00,,,0.00,LWC V2.11 B50,2013-03-05 12:20:00,
2013-03-05 04:25:00,44.2,39.1,29.97,SE,135,0.0,1.0,82,0.00,,,0.00,WeatherCatV1.15B25,2013-03-05 12:25:00,
2013-03-05 04:30:00,45.2,42.2,29.97,East,90,0.0,1.0,89,0.00,,,0.00,LWC V2.11 B50,2013-03-05 12:30:00,
2013-03-05 04:35:00,44.2,39.1,29.97,SE,135,0.0,1.0,82,0.00,,,0.00,WeatherCatV1.15B25,2013-03-05 12:35:00,
2013-03-05 04:40:00,45.2,42.2,29.97,East,90,0.0,1.0,89,0.00,,,0.00,LWC V2.11 B50,2013-03-05 12:40:00,
2013-03-05 04:45:00,44.2,39.1,29.97,SE,135,0.0,1.0,82,0.00,,,0.00,WeatherCatV1.15B25,2013-03-05 12:45:00,
2013-03-05 04:50:00,45.2,42.2,29.97,East,90,0.0,1.0,89,0.00,,,0.00,LWC V2.11 B50,2013-03-05 12:50:00,
2013-03-05 04:55:00,44.2,39.1,29.97,SE,135,0.0,1.0,82,0.00,,,0.00,WeatherCatV1.15B25,2013-03-05 12:55:00,
2013-03-05 05:00:00,45.2,42.2,29.97,East,90,0.0,1.0,89,0.00,,,0.00,LWC V2.11 B50,2013-03-05 13:00:00,
2013-03-05 05:05:00,43.2,39.3,29.98,SE,135,0.0,1.0,86,0.00,,,0.00,WeatherCatV1.15B25,2013-03-05 13:05:00,
2013-03-05 05:10:00,44.2,39.1,29.97,SE,135,0.0,1.0,82,0.00,,,0.00,LWC V2.11 B50,2013-03-05 13:10:00,
2013-03-05 05:15:00,43.2,39.3,29.98,SE,135,0.0,1.0,86,0.00,,,0.00,WeatherCatV1.15B25,2013-03-05 13:15:00,
2013-03-05 05:20:00,44.2,39.1,29.97,SE,135,0.0,1.0,82,0.00,,,0.00,LWC V2.11 B50,2013-03-05 13:20:00,
2013-03-05 05:25:00,43.2,39.3,29.98,SE,135,0.0,1.0,86,0.00,,,0.00,WeatherCatV1.15B25,2013-03-05 13:25:00,
2013-03-05 05:30:00,44.2,39.1,29.97,SE,135,0.0,1.0,82,0.00,,,0.00,LWC V2.11 B50,2013-03-05 13:30:00,
2013-03-05 05:35:00,43.2,39.3,29.98,SE,135,0.0,1.0,86,0.00,,,0.00,WeatherCatV1.15B25,2013-03-05 13:35:00,
2013-03-05 05:40:00,44.2,39.1,29.97,SE,135,0.0,1.0,82,0.00,,,0.00,LWC V2.11 B50,2013-03-05 13:40:00,
2013-03-05 05:45:00,43.2,39.3,29.98,SE,135,0.0,1.0,86,0.00,,,0.00,WeatherCatV1.15B25,2013-03-05 13:45:00,
2013-03-05 05:50:00,44.2,39.1,29.97,SE,135,0.0,1.0,82,0.00,,,0.00,LWC V2.11 B50,2013-03-05 13:50:00,
2013-03-05 05:55:00,43.2,39.3,29.98,SE,135,0.0,1.0,86,0.00,,,0.00,WeatherCatV1.15B25,2013-03-05 13:55:00,
2013-03-05 06:00:00,43.2,39.3,29.98,SE,135,0.0,1.0,86,0.00,,,0.00,LWC V2.11 B50,2013-03-05 14:00:00,
2013-03-05 06:05:00,44.0,40.1,29.98,ESE,112,0.0,1.0,86,0.00,,,0.00,WeatherCatV1.15B25,2013-03-05 14:05:00,
2013-03-05 06:10:00,43.2,39.3,29.98,SE,135,0.0,1.0,86,0.00,,,0.00,LWC V2.11 B50,2013-03-05 14:10:00,
2013-03-05 06:15:00,44.0,40.1,29.98,ESE,112,0.0,1.0,86,0.00,,,0.00,WeatherCatV1.15B25,2013-03-05 14:15:00,
2013-03-05 06:20:00,43.2,39.3,29.98,SE,135,0.0,1.0,86,0.00,,,0.00,LWC V2.11 B50,2013-03-05 14:20:00,
2013-03-05 06:25:00,44.0,40.1,29.98,ESE,112,0.0,1.0,86,0.00,,,0.00,WeatherCatV1.15B25,2013-03-05 14:25:00,
2013-03-05 06:30:00,43.2,39.3,29.98,SE,135,0.0,1.0,86,0.00,,,0.00,LWC V2.11 B50,2013-03-05 14:30:00,
2013-03-05 06:35:00,44.0,40.1,29.98,ESE,112,0.0,1.0,86,0.00,,,0.00,WeatherCatV1.15B25,2013-03-05 14:35:00,
2013-03-05 06:40:00,43.2,39.3,29.98,SE,135,0.0,1.0,86,0.00,,,0.00,LWC V2.11 B50,2013-03-05 14:40:00,
2013-03-05 06:45:00,44.0,40.1,29.98,ESE,112,0.0,1.0,86,0.00,,,0.00,WeatherCatV1.15B25,2013-03-05 14:45:00,
2013-03-05 06:50:00,43.2,39.3,29.98,SE,135,0.0,1.0,86,0.00,,,0.00,LWC V2.11 B50,2013-03-05 14:50:00,
2013-03-05 06:55:00,44.0,40.1,29.98,ESE,112,0.0,1.0,86,0.00,,,0.00,WeatherCatV1.15B25,2013-03-05 14:55:00,
2013-03-05 07:00:00,44.0,40.1,29.98,ESE,112,0.0,1.0,86,0.00,,,0.00,LWC V2.11 B50,2013-03-05 15:00:00,
2013-03-05 07:05:00,45.2,41.9,29.99,ENE,68,0.0,2.0,88,0.00,,,0.00,WeatherCatV1.15B25,2013-03-05 15:05:00,
2013-03-05 07:10:00,44.0,40.1,29.98,ESE,112,0.0,1.0,86,0.00,,,0.00,LWC V2.11 B50,2013-03-05 15:10:00,
2013-03-05 07:15:00,45.2,41.9,29.99,ENE,68,0.0,2.0,88,0.00,,,0.00,WeatherCatV1.15B25,2013-03-05 15:15:00,
2013-03-05 07:20:00,44.0,40.1,29.98,ESE,112,0.0,1.0,86,0.00,,,0.00,LWC V2.11 B50,2013-03-05 15:20:00,
2013-03-05 07:25:00,45.2,41.9,29.99,ENE,68,0.0,2.0,88,0.00,,,0.00,WeatherCatV1.15B25,2013-03-05 15:25:00,
2013-03-05 07:30:00,44.0,40.1,29.98,ESE,112,0.0,1.0,86,0.00,,,0.00,LWC V2.11 B50,2013-03-05 15:30:00,
2013-03-05 07:35:00,45.2,41.9,29.99,ENE,68,0.0,2.0,88,0.00,,,0.00,WeatherCatV1.15B25,2013-03-05 15:35:00,
2013-03-05 07:40:00,44.0,40.1,29.98,ESE,112,0.0,1.0,86,0.00,,,0.00,LWC V2.11 B50,2013-03-05 15:40:00,
2013-03-05 07:45:00,45.2,41.9,29.99,ENE,68,0.0,2.0,88,0.00,,,0.00,WeatherCatV1.15B25,2013-03-05 15:45:00,
2013-03-05 07:50:00,44.0,40.1,29.98,ESE,112,0.0,1.0,86,0.00,,,0.00,LWC V2.11 B50,2013-03-05 15:50:00,
2013-03-05 07:55:00,45.2,41.9,29.99,ENE,68,0.0,2.0,88,0.00,,,0.00,WeatherCatV1.15B25,2013-03-05 15:55:00,
2013-03-05 08:00:00,45.2,41.9,29.99,ENE,68,0.0,2.0,88,0.00,,,0.00,LWC V2.11 B50,2013-03-05 16:00:00,
2013-03-05 08:05:00,47.9,42.0,29.98,West,270,0.0,1.0,80,0.00,,,0.00,WeatherCatV1.15B25,2013-03-05 16:05:00,
2013-03-05 08:10:00,45.2,41.9,29.99,ENE,68,0.0,2.0,88,0.00,,,0.00,LWC V2.11 B50,2013-03-05 16:10:00,
2013-03-05 08:15:00,47.9,42.0,29.98,West,270,0.0,1.0,80,0.00,,,0.00,WeatherCatV1.15B25,2013-03-05 16:15:00,
2013-03-05 08:20:00,45.2,41.9,29.99,ENE,68,0.0,2.0,88,0.00,,,0.00,LWC V2.11 B50,2013-03-05 16:20:00,
2013-03-05 08:25:00,47.9,42.0,29.98,West,270,0.0,1.0,80,0.00,,,0.00,WeatherCatV1.15B25,2013-03-05 16:25:00,
2013-03-05 08:30:00,45.2,41.9,29.99,ENE,68,0.0,2.0,88,0.00,,,0.00,LWC V2.11 B50,2013-03-05 16:30:00,
2013-03-05 08:35:00,47.9,42.0,29.98,West,270,0.0,1.0,80,0.00,,,0.00,WeatherCatV1.15B25,2013-03-05 16:35:00,
2013-03-05 08:40:00,45.2,41.9,29.99,ENE,68,0.0,2.0,88,0.00,,,0.00,LWC V2.11 B50,2013-03-05 16:40:00,
2013-03-05 08:45:00,47.9,42.0,29.98,West,270,0.0,1.0,80,0.00,,,0.00,WeatherCatV1.15B25,2013-03-05 16:45:00,
2013-03-05 08:50:00,45.2,41.9,29.99,ENE,68,0.0,2.0,88,0.00,,,0.00,LWC V2.11 B50,2013-03-05 16:50:00,
2013-03-05 08:55:00,47.9,42.0,29.98,West,270,0.0,1.0,80,0.00,,,0.00,WeatherCatV1.15B25,2013-03-05 16:55:00,
2013-03-05 09:00:00,45.2,41.9,29.99,ENE,68,0.0,2.0,88,0.00,,,0.00,LWC V2.11 B50,2013-03-05 17:00:00,
2013-03-05 09:05:00,49.4,42.5,29.97,West,270,0.0,1.0,77,0.00,,,0.00,WeatherCatV1.15B25,2013-03-05 17:05:00,
2013-03-05 09:10:00,47.9,42.0,29.98,West,270,0.0,1.0,80,0.00,,,0.00,LWC V2.11 B50,2013-03-05 17:10:00,
2013-03-05 09:15:00,49.4,42.5,29.97,West,270,0.0,1.0,77,0.00,,,0.00,WeatherCatV1.15B25,2013-03-05 17:15:00,
2013-03-05 09:20:00,47.9,42.0,29.98,West,270,0.0,1.0,80,0.00,,,0.00,LWC V2.11 B50,2013-03-05 17:20:00,
2013-03-05 09:25:00,49.4,42.5,29.97,West,270,0.0,1.0,77,0.00,,,0.00,WeatherCatV1.15B25,2013-03-05 17:25:00,
2013-03-05 09:30:00,47.9,42.0,29.98,West,270,0.0,1.0,80,0.00,,,0.00,LWC V2.11 B50,2013-03-05 17:30:00,
2013-03-05 09:35:00,49.4,42.5,29.97,West,270,0.0,1.0,77,0.00,,,0.00,WeatherCatV1.15B25,2013-03-05 17:35:00,
2013-03-05 09:40:00,47.9,42.0,29.98,West,270,0.0,1.0,80,0.00,,,0.00,LWC V2.11 B50,2013-03-05 17:40:00,
2013-03-05 09:45:00,49.4,42.5,29.97,West,270,0.0,1.0,77,0.00,,,0.00,WeatherCatV1.15B25,2013-03-05 17:45:00,
2013-03-05 09:50:00,47.9,42.0,29.98,West,270,0.0,1.0,80,0.00,,,0.00,LWC V2.11 B50,2013-03-05 17:50:00,
2013-03-05 09:55:00,49.4,42.5,29.97,West,270,0.0,1.0,77,0.00,,,0.00,WeatherCatV1.15B25,2013-03-05 17:55:00,
2013-03-05 10:00:00,47.9,42.0,29.98,West,270,0.0,1.0,80,0.00,,,0.00,LWC V2.11 B50,2013-03-05 18:00:00,
2013-03-05 10:05:00,53.1,44.7,29.94,SE,135,0.0,4.0,73,0.00,,,0.00,WeatherCatV1.15B25,2013-03-05 18:05:00,
2013-03-05 10:10:00,49.4,42.5,29.97,West,270,0.0,1.0,77,0.00,,,0.00,LWC V2.11 B50,2013-03-05 18:10:00,
2013-03-05 10:15:00,53.1,44.7,29.94,SE,135,0.0,4.0,73,0.00,,,0.00,WeatherCatV1.15B25,2013-03-05 18:15:00,
2013-03-05 10:20:00,49.4,42.5,29.97,West,270,0.0,1.0,77,0.00,,,0.00,LWC V2.11 B50,2013-03-05 18:20:00,
2013-03-05 10:25:00,53.1,44.7,29.94,SE,135,0.0,4.0,73,0.00,,,0.00,WeatherCatV1.15B25,2013-03-05 18:25:00,
2013-03-05 10:30:00,49.4,42.5,29.97,West,270,0.0,1.0,77,0.00,,,0.00,LWC V2.11 B50,2013-03-05 18:30:00,
2013-03-05 10:35:00,53.1,44.7,29.94,SE,135,0.0,4.0,73,0.00,,,0.00,WeatherCatV1.15B25,2013-03-05 18:35:00,
2013-03-05 10:40:00,49.4,42.5,29.97,West,270,0.0,1.0,77,0.00,,,0.00,LWC V2.11 B50,2013-03-05 18:40:00,
2013-03-05 10:45:00,53.1,44.7,29.94,SE,135,0.0,4.0,73,0.00,,,0.00,WeatherCatV1.15B25,2013-03-05 18:45:00,
2013-03-05 10:50:00,49.4,42.5,29.97,West,270,0.0,1.0,77,0.00,,,0.00,LWC V2.11 B50,2013-03-05 18:50:00,
2013-03-05 10:55:00,53.1,44.7,29.94,SE,135,0.0,4.0,73,0.00,,,0.00,WeatherCatV1.15B25,2013-03-05 18:55:00,
2013-03-05 11:00:00,49.4,42.5,29.97,West,270,0.0,1.0,77,0.00,,,0.00,LWC V2.11 B50,2013-03-05 19:00:00,
2013-03-05 11:05:00,52.7,43.6,29.93,SE,135,1.0,5.0,71,0.00,,,0.00,WeatherCatV1.15B25,2013-03-05 19:05:00,
2013-03-05 11:10:00,53.1,44.7,29.94,SE,135,0.0,4.0,73,0.00,,,0.00,LWC V2.11 B50,2013-03-05 19:10:00,
2013-03-05 11:15:00,52.7,43.6,29.93,SE,135,1.0,5.0,71,0.00,,,0.00,WeatherCatV1.15B25,2013-03-05 19:15:00,
2013-03-05 11:20:00,53.1,44.7,29.94,SE,135,0.0,4.0,73,0.00,,,0.00,LWC V2.11 B50,2013-03-05 19:20:00,
2013-03-05 11:25:00,52.7,43.6,29.93,SE,135,1.0,5.0,71,0.00,,,0.00,WeatherCatV1.15B25,2013-03-05 19:25:00,
2013-03-05 11:30:00,53.1,44.7,29.94,SE,135,0.0,4.0,73,0.00,,,0.00,LWC V2.11 B50,2013-03-05 19:30:00,
2013-03-05 11:35:00,52.7,43.6,29.93,SE,135,1.0,5.0,71,0.00,,,0.00,WeatherCatV1.15B25,2013-03-05 19:35:00,
2013-03-05 11:40:00,53.1,44.7,29.94,SE,135,0.0,4.0,73,0.00,,,0.00,LWC V2.11 B50,2013-03-05 19:40:00,
2013-03-05 11:45:00,52.7,43.6,29.93,SE,135,1.0,5.0,71,0.00,,,0.00,WeatherCatV1.15B25,2013-03-05 19:45:00,
2013-03-05 11:50:00,53.1,44.7,29.94,SE,135,0.0,4.0,73,0.00,,,0.00,LWC V2.11 B50,2013-03-05 19:50:00,
2013-03-05 11:55:00,52.7,43.6,29.93,SE,135,1.0,5.0,71,0.00,,,0.00,WeatherCatV1.15B25,2013-03-05 19:55:00,
2013-03-05 12:00:00,53.1,44.7,29.94,SE,135,0.0,4.0,73,0.00,,,0.00,LWC V2.11 B50,2013-03-05 20:00:00,
2013-03-05 12:05:00,52.7,38.8,29.92,WSW,248,1.0,9.0,59,0.00,,,0.00,WeatherCatV1.15B25,2013-03-05 20:05:00,
2013-03-05 12:10:00,52.7,43.6,29.93,SE,135,1.0,5.0,71,0.00,,,0.00,LWC V2.11 B50,2013-03-05 20:10:00,
2013-03-05 12:15:00,52.7,38.8,29.92,WSW,248,1.0,9.0,59,0.00,,,0.00,WeatherCatV1.15B25,2013-03-05 20:15:00,
2013-03-05 12:20:00,52.7,43.6,29.93,SE,135,1.0,5.0,71,0.00,,,0.00,LWC V2.11 B50,2013-03-05 20:20:00,
2013-03-05 12:25:00,52.7,38.8,29.92,WSW,248,1.0,9.0,59,0.00,,,0.00,WeatherCatV1.15B25,2013-03-05 20:25:00,
2013-03-05 12:30:00,52.7,43.6,29.93,SE,135,1.0,5.0,71,0.00,,,0.00,LWC V2.11 B50,2013-03-05 20:30:00,
2013-03-05 12:35:00,52.7,38.8,29.92,WSW,248,1.0,9.0,59,0.00,,,0.00,WeatherCatV1.15B25,2013-03-05 20:35:00,
2013-03-05 12:40:00,52.7,43.6,29.93,SE,135,1.0,5.0,71,0.00,,,0.00,LWC V2.11 B50,2013-03-05 20:40:00,
2013-03-05 12:45:00,52.7,38.8,29.92,WSW,248,1.0,9.0,59,0.00,,,0.00,WeatherCatV1.15B25,2013-03-05 20:45:00,
2013-03-05 12:50:00,52.7,43.6,29.93,SE,135,1.0,5.0,71,0.00,,,0.00,LWC V2.11 B50,2013-03-05 20:50:00,
2013-03-05 12:55:00,52.7,38.8,29.92,WSW,248,1.0,9.0,59,0.00,,,0.00,WeatherCatV1.15B25,2013-03-05 20:55:00,
2013-03-05 13:00:00,52.7,43.6,29.93,SE,135,1.0,5.0,71,0.00,,,0.00,LWC V2.11 B50,2013-03-05 21:00:00,
2013-03-05 13:05:00,52.9,36.2,29.90,WSW,248,1.0,6.0,53,0.00,,,0.00,WeatherCatV1.15B25,2013-03-05 21:05:00,
2013-03-05 13:10:00,52.7,38.8,29.92,WSW,248,1.0,9.0,59,0.00,,,0.00,LWC V2.11 B50,2013-03-05 21:10:00,
2013-03-05 13:15:00,52.9,36.2,29.90,WSW,248,1.0,6.0,53,0.00,,,0.00,WeatherCatV1.15B25,2013-03-05 21:15:00,
2013-03-05 13:20:00,52.7,38.8,29.92,WSW,248,1.0,9.0,59,0.00,,,0.00,LWC V2.11 B50,2013-03-05 21:20:00,
2013-03-05 13:25:00,52.9,36.2,29.90,WSW,248,1.0,6.0,53,0.00,,,0.00,WeatherCatV1.15B25,2013-03-05 21:25:00,
2013-03-05 13:30:00,52.7,38.8,29.92,WSW,248,1.0,9.0,59,0.00,,,0.00,LWC V2.11 B50,2013-03-05 21:30:00,
2013-03-05 13:35:00,52.9,36.2,29.90,WSW,248,1.0,6.0,53,0.00,,,0.00,WeatherCatV1.15B25,2013-03-05 21:35:00,
2013-03-05 13:40:00,52.7,38.8,29.92,WSW,248,1.0,9.0,59,0.00,,,0.00,LWC V2.11 B50,2013-03-05 21:40:00,
2013-03-05 13:45:00,52.9,36.2,29.90,WSW,248,1.0,6.0,53,0.00,,,0.00,WeatherCatV1.15B25,2013-03-05 21:45:00,
2013-03-05 13:50:00,52.7,38.8,29.92,WSW,248,1.0,9.0,59,0.00,,,0.00,LWC V2.11 B50,2013-03-05 21:50:00,
2013-03-05 13:55:00,52.9,36.2,29.90,WSW,248,1.0,6.0,53,0.00,,,0.00,WeatherCatV1.15B25,2013-03-05 21:55:00,
2013-03-05 14:00:00,52.7,38.8,29.92,WSW,248,1.0,9.0,59,0.00,,,0.00,LWC V2.11 B50,2013-03-05 22:00:00,
2013-03-05 14:05:00,52.1,35.0,29.89,WSW,248,1.0,8.0,52,0.00,,,0.00,WeatherCatV1.15B25,2013-03-05 22:05:00,
2013-03-05 14:10:00,52.9,36.2,29.90,WSW,248,1.0,6.0,53,0.00,,,0.00,LWC V2.11 B50,2013-03-05 22:10:00,
2013-03-05 14:15:00,52.1,35.0,29.89,WSW,248,1.0,8.0,52,0.00,,,0.00,WeatherCatV1.15B25,2013-03-05 22:15:00,
2013-03-05 14:20:00,52.9,36.2,29.90,WSW,248,1.0,6.0,53,0.00,,,0.00,LWC V2.11 B50,2013-03-05 22:20:00,
2013-03-05 14:25:00,52.1,35.0,29.89,WSW,248,1.0,8.0,52,0.00,,,0.00,WeatherCatV1.15B25,2013-03-05 22:25:00,
2013-03-05 14:30:00,52.9,36.2,29.90,WSW,248,1.0,6.0,53,0.00,,,0.00,LWC V2.11 B50,2013-03-05 22:30:00,
2013-03-05 14:35:00,52.1,35.0,29.89,WSW,248,1.0,8.0,52,0.00,,,0.00,WeatherCatV1.15B25,2013-03-05 22:35:00,
2013-03-05 14:40:00,52.9,36.2,29.90,WSW,248,1.0,6.0,53,0.00,,,0.00,LWC V2.11 B50,2013-03-05 22:40:00,
2013-03-05 14:45:00,52.1,35.0,29.89,WSW,248,1.0,8.0,52,0.00,,,0.00,WeatherCatV1.15B25,2013-03-05 22:45:00,
2013-03-05 14:50:00,52.9,36.2,29.90,WSW,248,1.0,6.0,53,0.00,,,0.00,LWC V2.11 B50,2013-03-05 22:50:00,
2013-03-05 14:55:00,52.1,35.0,29.89,WSW,248,1.0,8.0,52,0.00,,,0.00,WeatherCatV1.15B25,2013-03-05 22:55:00,
2013-03-05 15:00:00,52.9,36.2,29.90,WSW,248,1.0,6.0,53,0.00,,,0.00,LWC V2.11 B50,2013-03-05 23:00:00,
2013-03-05 15:05:00,51.5,38.9,29.89,WSW,248,2.0,9.0,62,0.00,,,0.00,WeatherCatV1.15B25,2013-03-05 23:05:00,
2013-03-05 15:10:00,52.1,35.0,29.89,WSW,248,1.0,8.0,52,0.00,,,0.00,LWC V2.11 B50,2013-03-05 23:10:00,
2013-03-05 15:15:00,51.5,38.9,29.89,WSW,248,2.0,9.0,62,0.00,,,0.00,WeatherCatV1.15B25,2013-03-05 23:15:00,
2013-03-05 15:20:00,51.5,38.9,29.89,WSW,248,2.0,9.0,62,0.00,,,0.00,WeatherCatV1.15B25,2013-03-05 23:20:00,
2013-03-05 15:25:00,51.5,38.9,29.89,WSW,248,2.0,9.0,62,0.00,,,0.00,WeatherCatV1.15B25,2013-03-05 23:25:00,
2013-03-05 15:28:00,52.2,37.4,29.89,WSW,245,2.0,3.0,57,0.00,,,0.00,LWC V2.11 B50,2013-03-05 23:28:00,
2013-03-05 15:30:00,51.5,38.9,29.89,WSW,248,2.0,9.0,62,0.00,,,0.00,WeatherCatV1.15B25,2013-03-05 23:30:00,
2013-03-05 15:33:00,52.2,37.9,29.88,WSW,256,3.0,5.0,58,0.00,,,0.00,LWC V2.11 B50,2013-03-05 23:33:00,
2013-03-05 15:35:00,51.5,38.9,29.89,WSW,248,2.0,9.0,62,0.00,,,0.00,WeatherCatV1.15B25,2013-03-05 23:35:00,
2013-03-05 15:38:00,52.6,38.2,29.89,WSW,243,0.0,5.0,58,0.00,,,0.00,LWC V2.11 B50,2013-03-05 23:38:00,
2013-03-05 15:40:00,52.6,38.7,29.89,WSW,251,2.0,7.0,59,0.00,,,0.00,LWC V2.11 B50,2013-03-05 23:40:00,
2013-03-05 15:45:00,51.5,38.9,29.89,WSW,248,2.0,9.0,62,0.00,,,0.00,WeatherCatV1.15B25,2013-03-05 23:45:00,
2013-03-05 15:50:00,52.1,35.0,29.89,WSW,248,1.0,8.0,52,0.00,,,0.00,LWC V2.11 B50,2013-03-05 23:50:00,
2013-03-05 15:55:00,51.5,38.9,29.89,WSW,248,2.0,9.0,62,0.00,,,0.00,WeatherCatV1.15B25,2013-03-05 23:55:00,
2013-03-05 16:00:00,52.1,35.0,29.89,WSW,248,1.0,8.0,52,0.00,,,0.00,LWC V2.11 B50,2013-03-06 00:00:00,
2013-03-05 16:05:00,49.1,39.0,29.87,WSW,248,1.0,5.0,68,0.00,,,0.00,WeatherCatV1.15B25,2013-03-06 00:05:00,
2013-03-05 16:10:00,51.5,38.9,29.89,WSW,248,2.0,9.0,62,0.00,,,0.00,LWC V2.11 B50,2013-03-06 00:10:00,
2013-03-05 16:15:00,49.1,39.0,29.87,WSW,248,1.0,5.0,68,0.00,,,0.00,WeatherCatV1.15B25,2013-03-06 00:15:00,
2013-03-05 16:20:00,51.5,38.9,29.89,WSW,248,2.0,9.0,62,0.00,,,0.00,LWC V2.11 B50,2013-03-06 00:20:00,
2013-03-05 16:25:00,49.1,39.0,29.87,WSW,248,1.0,5.0,68,0.00,,,0.00,WeatherCatV1.15B25,2013-03-06 00:25:00,
2013-03-05 16:30:00,51.5,38.9,29.89,WSW,248,2.0,9.0,62,0.00,,,0.00,LWC V2.11 B50,2013-03-06 00:30:00,
2013-03-05 16:35:00,49.1,39.0,29.87,WSW,248,1.0,5.0,68,0.00,,,0.00,WeatherCatV1.15B25,2013-03-06 00:35:00,
2013-03-05 16:40:00,51.5,38.9,29.89,WSW,248,2.0,9.0,62,0.00,,,0.00,LWC V2.11 B50,2013-03-06 00:40:00,
2013-03-05 16:45:00,49.1,39.0,29.87,WSW,248,1.0,5.0,68,0.00,,,0.00,WeatherCatV1.15B25,2013-03-06 00:45:00,
2013-03-05 16:50:00,51.5,38.9,29.89,WSW,248,2.0,9.0,62,0.00,,,0.00,LWC V2.11 B50,2013-03-06 00:50:00,
2013-03-05 16:55:00,49.1,39.0,29.87,WSW,248,1.0,5.0,68,0.00,,,0.00,WeatherCatV1.15B25,2013-03-06 00:55:00,
2013-03-05 17:00:00,51.5,38.9,29.89,WSW,248,2.0,9.0,62,0.00,,,0.00,LWC V2.11 B50,2013-03-06 01:00:00,
2013-03-05 17:05:00,46.5,39.0,29.84,WSW,248,0.0,0.0,75,0.00,,,0.00,WeatherCatV1.15B25,2013-03-06 01:05:00,
2013-03-05 17:10:00,49.1,39.0,29.87,WSW,248,1.0,5.0,68,0.00,,,0.00,LWC V2.11 B50,2013-03-06 01:10:00,
2013-03-05 17:15:00,46.5,39.0,29.84,WSW,248,0.0,0.0,75,0.00,,,0.00,WeatherCatV1.15B25,2013-03-06 01:15:00,
2013-03-05 17:20:00,49.1,39.0,29.87,WSW,248,1.0,5.0,68,0.00,,,0.00,LWC V2.11 B50,2013-03-06 01:20:00,
2013-03-05 17:25:00,46.5,39.0,29.84,WSW,248,0.0,0.0,75,0.00,,,0.00,WeatherCatV1.15B25,2013-03-06 01:25:00,
2013-03-05 17:30:00,49.1,39.0,29.87,WSW,248,1.0,5.0,68,0.00,,,0.00,LWC V2.11 B50,2013-03-06 01:30:00,
2013-03-05 17:35:00,46.5,39.0,29.84,WSW,248,0.0,0.0,75,0.00,,,0.00,WeatherCatV1.15B25,2013-03-06 01:35:00,
2013-03-05 17:40:00,49.1,39.0,29.87,WSW,248,1.0,5.0,68,0.00,,,0.00,LWC V2.11 B50,2013-03-06 01:40:00,
2013-03-05 17:45:00,46.5,39.0,29.84,WSW,248,0.0,0.0,75,0.00,,,0.00,WeatherCatV1.15B25,2013-03-06 01:45:00,
2013-03-05 17:50:00,49.1,39.0,29.87,WSW,248,1.0,5.0,68,0.00,,,0.00,LWC V2.11 B50,2013-03-06 01:50:00,
2013-03-05 17:55:00,46.5,39.0,29.84,WSW,248,0.0,0.0,75,0.00,,,0.00,WeatherCatV1.15B25,2013-03-06 01:55:00,
2013-03-05 18:00:00,49.1,39.0,29.87,WSW,248,1.0,5.0,68,0.00,,,0.00,LWC V2.11 B50,2013-03-06 02:00:00,
2013-03-05 18:05:00,44.9,39.1,29.83,WSW,248,0.0,0.0,80,0.00,,,0.00,WeatherCatV1.15B25,2013-03-06 02:05:00,
2013-03-05 18:10:00,46.5,39.0,29.84,WSW,248,0.0,0.0,75,0.00,,,0.00,LWC V2.11 B50,2013-03-06 02:10:00,
2013-03-05 18:15:00,44.9,39.1,29.83,WSW,248,0.0,0.0,80,0.00,,,0.00,WeatherCatV1.15B25,2013-03-06 02:15:00,
2013-03-05 18:20:00,46.5,39.0,29.84,WSW,248,0.0,0.0,75,0.00,,,0.00,LWC V2.11 B50,2013-03-06 02:20:00,
2013-03-05 18:25:00,44.9,39.1,29.83,WSW,248,0.0,0.0,80,0.00,,,0.00,WeatherCatV1.15B25,2013-03-06 02:25:00,
2013-03-05 18:30:00,46.5,39.0,29.84,WSW,248,0.0,0.0,75,0.00,,,0.00,LWC V2.11 B50,2013-03-06 02:30:00,
2013-03-05 18:35:00,44.9,39.1,29.83,WSW,248,0.0,0.0,80,0.00,,,0.00,WeatherCatV1.15B25,2013-03-06 02:35:00,
2013-03-05 18:40:00,46.5,39.0,29.84,WSW,248,0.0,0.0,75,0.00,,,0.00,LWC V2.11 B50,2013-03-06 02:40:00,
2013-03-05 18:45:00,44.9,39.1,29.83,WSW,248,0.0,0.0,80,0.00,,,0.00,WeatherCatV1.15B25,2013-03-06 02:45:00,
2013-03-05 18:50:00,46.5,39.0,29.84,WSW,248,0.0,0.0,75,0.00,,,0.00,LWC V2.11 B50,2013-03-06 02:50:00,
2013-03-05 18:55:00,44.9,39.1,29.83,WSW,248,0.0,0.0,80,0.00,,,0.00,WeatherCatV1.15B25,2013-03-06 02:55:00,
2013-03-05 19:00:00,44.9,39.1,29.83,WSW,248,0.0,0.0,80,0.00,,,0.00,LWC V2.11 B50,2013-03-06 03:00:00,
2013-03-05 19:05:00,45.2,39.4,29.83,ESE,112,0.0,1.0,80,0.00,,,0.00,WeatherCatV1.15B25,2013-03-06 03:05:00,
2013-03-05 19:10:00,44.9,39.1,29.83,WSW,248,0.0,0.0,80,0.00,,,0.00,LWC V2.11 B50,2013-03-06 03:10:00,
2013-03-05 19:15:00,45.2,39.4,29.83,ESE,112,0.0,1.0,80,0.00,,,0.00,WeatherCatV1.15B25,2013-03-06 03:15:00,
2013-03-05 19:20:00,44.9,39.1,29.83,WSW,248,0.0,0.0,80,0.00,,,0.00,LWC V2.11 B50,2013-03-06 03:20:00,
2013-03-05 19:25:00,45.2,39.4,29.83,ESE,112,0.0,1.0,80,0.00,,,0.00,WeatherCatV1.15B25,2013-03-06 03:25:00,
2013-03-05 19:30:00,44.9,39.1,29.83,WSW,248,0.0,0.0,80,0.00,,,0.00,LWC V2.11 B50,2013-03-06 03:30:00,
2013-03-05 19:35:00,45.2,39.4,29.83,ESE,112,0.0,1.0,80,0.00,,,0.00,WeatherCatV1.15B25,2013-03-06 03:35:00,
2013-03-05 19:40:00,44.9,39.1,29.83,WSW,248,0.0,0.0,80,0.00,,,0.00,LWC V2.11 B50,2013-03-06 03:40:00,
2013-03-05 19:45:00,45.2,39.4,29.83,ESE,112,0.0,1.0,80,0.00,,,0.00,WeatherCatV1.15B25,2013-03-06 03:45:00,
2013-03-05 19:50:00,44.9,39.1,29.83,WSW,248,0.0,0.0,80,0.00,,,0.00,LWC V2.11 B50,2013-03-06 03:50:00,
2013-03-05 19:55:00,45.2,39.4,29.83,ESE,112,0.0,1.0,80,0.00,,,0.00,WeatherCatV1.15B25,2013-03-06 03:55:00,
2013-03-05 20:00:00,45.2,39.4,29.83,ESE,112,0.0,1.0,80,0.00,,,0.00,LWC V2.11 B50,2013-03-06 04:00:00,
2013-03-05 20:05:00,46.3,39.8,29.83,ESE,112,0.0,3.0,78,0.00,,,0.00,WeatherCatV1.15B25,2013-03-06 04:05:00,
2013-03-05 20:10:00,45.2,39.4,29.83,ESE,112,0.0,1.0,80,0.00,,,0.00,LWC V2.11 B50,2013-03-06 04:10:00,
2013-03-05 20:15:00,46.3,39.8,29.83,ESE,112,0.0,3.0,78,0.00,,,0.00,WeatherCatV1.15B25,2013-03-06 04:15:00,
2013-03-05 20:20:00,45.2,39.4,29.83,ESE,112,0.0,1.0,80,0.00,,,0.00,LWC V2.11 B50,2013-03-06 04:20:00,
2013-03-05 20:25:00,46.3,39.8,29.83,ESE,112,0.0,3.0,78,0.00,,,0.00,WeatherCatV1.15B25,2013-03-06 04:25:00,
2013-03-05 20:30:00,45.2,39.4,29.83,ESE,112,0.0,1.0,80,0.00,,,0.00,LWC V2.11 B50,2013-03-06 04:30:00,
2013-03-05 20:35:00,46.3,39.8,29.83,ESE,112,0.0,3.0,78,0.00,,,0.00,WeatherCatV1.15B25,2013-03-06 04:35:00,
2013-03-05 20:40:00,45.2,39.4,29.83,ESE,112,0.0,1.0,80,0.00,,,0.00,LWC V2.11 B50,2013-03-06 04:40:00,
2013-03-05 20:45:00,46.3,39.8,29.83,ESE,112,0.0,3.0,78,0.00,,,0.00,WeatherCatV1.15B25,2013-03-06 04:45:00,
2013-03-05 20:50:00,45.2,39.4,29.83,ESE,112,0.0,1.0,80,0.00,,,0.00,LWC V2.11 B50,2013-03-06 04:50:00,
2013-03-05 20:55:00,46.3,39.8,29.83,ESE,112,0.0,3.0,78,0.00,,,0.00,WeatherCatV1.15B25,2013-03-06 04:55:00,
2013-03-05 21:00:00,46.3,39.8,29.83,ESE,112,0.0,3.0,78,0.00,,,0.00,LWC V2.11 B50,2013-03-06 05:00:00,
2013-03-05 21:05:00,45.4,39.6,29.83,SE,135,0.0,2.0,80,0.00,,,0.00,WeatherCatV1.15B25,2013-03-06 05:05:00,
2013-03-05 21:10:00,46.3,39.8,29.83,ESE,112,0.0,3.0,78,0.00,,,0.00,LWC V2.11 B50,2013-03-06 05:10:00,
2013-03-05 21:15:00,45.4,39.6,29.83,SE,135,0.0,2.0,80,0.00,,,0.00,WeatherCatV1.15B25,2013-03-06 05:15:00,
2013-03-05 21:20:00,46.3,39.8,29.83,ESE,112,0.0,3.0,78,0.00,,,0.00,LWC V2.11 B50,2013-03-06 05:20:00,
2013-03-05 21:25:00,45.4,39.6,29.83,SE,135,0.0,2.0,80,0.00,,,0.00,WeatherCatV1.15B25,2013-03-06 05:25:00,
2013-03-05 21:30:00,46.3,39.8,29.83,ESE,112,0.0,3.0,78,0.00,,,0.00,LWC V2.11 B50,2013-03-06 05:30:00,
2013-03-05 21:35:00,45.4,39.6,29.83,SE,135,0.0,2.0,80,0.00,,,0.00,WeatherCatV1.15B25,2013-03-06 05:35:00,
2013-03-05 21:40:00,46.3,39.8,29.83,ESE,112,0.0,3.0,78,0.00,,,0.00,LWC V2.11 B50,2013-03-06 05:40:00,
2013-03-05 21:45:00,45.4,39.6,29.83,SE,135,0.0,2.0,80,0.00,,,0.00,WeatherCatV1.15B25,2013-03-06 05:45:00,
2013-03-05 21:50:00,46.3,39.8,29.83,ESE,112,0.0,3.0,78,0.00,,,0.00,LWC V2.11 B50,2013-03-06 05:50:00,
2013-03-05 21:55:00,45.4,39.6,29.83,SE,135,0.0,2.0,80,0.00,,,0.00,WeatherCatV1.15B25,2013-03-06 05:55:00,
2013-03-05 22:00:00,46.3,39.8,29.83,ESE,112,0.0,3.0,78,0.00,,,0.00,LWC V2.11 B50,2013-03-06 06:00:00,
2013-03-05 22:05:00,45.5,40.0,29.81,ESE,112,0.0,1.0,81,0.00,,,0.00,WeatherCatV1.15B25,2013-03-06 06:05:00,
2013-03-05 22:10:00,45.4,39.6,29.83,SE,135,0.0,2.0,80,0.00,,,0.00,LWC V2.11 B50,2013-03-06 06:10:00,
2013-03-05 22:15:00,45.5,40.0,29.81,ESE,112,0.0,1.0,81,0.00,,,0.00,WeatherCatV1.15B25,2013-03-06 06:15:00,
2013-03-05 22:20:00,45.4,39.6,29.83,SE,135,0.0,2.0,80,0.00,,,0.00,LWC V2.11 B50,2013-03-06 06:20:00,
2013-03-05 22:25:00,45.5,40.0,29.81,ESE,112,0.0,1.0,81,0.00,,,0.00,WeatherCatV1.15B25,2013-03-06 06:25:00,
2013-03-05 22:30:00,45.4,39.6,29.83,SE,135,0.0,2.0,80,0.00,,,0.00,LWC V2.11 B50,2013-03-06 06:30:00,
2013-03-05 22:35:00,45.5,40.0,29.81,ESE,112,0.0,1.0,81,0.00,,,0.00,WeatherCatV1.15B25,2013-03-06 06:35:00,
2013-03-05 22:40:00,45.4,39.6,29.83,SE,135,0.0,2.0,80,0.00,,,0.00,LWC V2.11 B50,2013-03-06 06:40:00,
2013-03-05 22:45:00,45.5,40.0,29.81,ESE,112,0.0,1.0,81,0.00,,,0.00,WeatherCatV1.15B25,2013-03-06 06:45:00,
2013-03-05 22:50:00,45.4,39.6,29.83,SE,135,0.0,2.0,80,0.00,,,0.00,LWC V2.11 B50,2013-03-06 06:50:00,
2013-03-05 22:55:00,45.5,40.0,29.81,ESE,112,0.0,1.0,81,0.00,,,0.00,WeatherCatV1.15B25,2013-03-06 06:55:00,
2013-03-05 23:00:00,45.5,40.0,29.81,ESE,112,0.0,1.0,81,0.00,,,0.00,LWC V2.11 B50,2013-03-06 07:00:00,
2013-03-05 23:05:00,42.8,40.1,29.83,WSW,248,1.0,5.0,90,0.24,,,0.00,WeatherCatV1.15B25,2013-03-06 07:05:00,
2013-03-05 23:10:00,45.5,40.0,29.81,ESE,112,0.0,1.0,81,0.00,,,0.00,LWC V2.11 B50,2013-03-06 07:10:00,
2013-03-05 23:15:00,42.8,40.1,29.83,WSW,248,1.0,5.0,90,0.24,,,0.00,WeatherCatV1.15B25,2013-03-06 07:15:00,
2013-03-05 23:20:00,45.5,40.0,29.81,ESE,112,0.0,1.0,81,0.00,,,0.00,LWC V2.11 B50,2013-03-06 07:20:00,
2013-03-05 23:25:00,42.8,40.1,29.83,WSW,248,1.0,5.0,90,0.24,,,0.00,WeatherCatV1.15B25,2013-03-06 07:25:00,
2013-03-05 23:30:00,45.5,40.0,29.81,ESE,112,0.0,1.0,81,0.00,,,0.00,LWC V2.11 B50,2013-03-06 07:30:00,
2013-03-05 23:35:00,42.8,40.1,29.83,WSW,248,1.0,5.0,90,0.24,,,0.00,WeatherCatV1.15B25,2013-03-06 07:35:00,
2013-03-05 23:40:00,45.5,40.0,29.81,ESE,112,0.0,1.0,81,0.00,,,0.00,LWC V2.11 B50,2013-03-06 07:40:00,
2013-03-05 23:45:00,42.8,40.1,29.83,WSW,248,1.0,5.0,90,0.24,,,0.00,WeatherCatV1.15B25,2013-03-06 07:45:00,
2013-03-05 23:50:00,45.5,40.0,29.81,ESE,112,0.0,1.0,81,0.00,,,0.00,LWC V2.11 B50,2013-03-06 07:50:00,
2013-03-05 23:55:00,42.8,40.1,29.83,WSW,248,1.0,5.0,90,0.24,,,0.00,WeatherCatV1.15B25,2013-03-06 07:55:00,